ギブス彗星

C/2018 A6 ( Gibbs )

English version
Home page
Updated on July 8, 2020

---------------------------------------------------------------------

・ プロフィール

発見日 2018年1月15日
発見光度 19.3等
発見者 A. R. Gibbs (Mount Lemmon)

・ 写真集

・ 軌道要素

Epoch 2019 July 16.0 TT = JDT 2458680.5
T 2019 July 14.26782 TT                                 Rudenko
q   3.0177638            (2000.0)            P               Q
n   0.01637793     Peri.  264.52776     -0.16525430     +0.93045696
a  15.3566601      Node   340.38603     +0.22092834     -0.28822657
e   0.8034883      Incl.   76.95486     -0.96118764     -0.22621955
P  60.2
From 429 observations 2017 Apr. 3-2020 June 15, mean residual 0".4.

・ 星図

・ 光度変化

        m1 = 4.2 + 5 logΔ + 15.0 log r

---------------------------------------------------------------------

軌道要素はM.P.E.C. 2020-M07に掲載されたものです。
星図はステラナビゲータ Ver.10 (アストロアーツ) で作成したものです。
光度グラフはComet for Windowsで作成したものです。

---------------------------------------------------------------------

Copyright(C) Seiichi Yoshida (comet@aerith.net). All rights reserved.